Theta_e
311 309 309 308 308 309 311 312 311 310 310 311 311 310 310 308 308 305 302 302 302 301 299 298 297 297 298 300 301 303 306 308 314 317 318 320 322 323 324 323 322 324 325 326
311 311 310 310 310 311 311 312 311 310 311 311 310 310 307 305 304 303 302 302 301 299 298 297 296 295 295 296 297 300 301 304 306 309 309 310 312 308 309 316 316 317 320 322
311 313 311 313 314 314 313 313 313 314 310 308 308 308 308 306 304 303 302 300 299 298 298 296 296 294 294 295 295 296 297 299 302 304 307 308 308 308 308 307 309 310 312 314
312 311 313 313 313 312 314 310 311 311 310 311 307 310 308 307 305 303 301 299 298 297 296 296 295 294 293 293 294 295 296 297 297 299 301 300 298 297 297 299 301 304 306 308
315 312 312 313 313 309 311 309 310 310 309 309 308 308 308 306 307 303 301 299 298 297 296 295 294 294 292 292 293 293 293 294 294 295 296 296 296 296 297 298 299 300 300 301
310 308 309 310 310 310 308 309 308 306 306 310 308 310 311 309 307 303 301 300 298 296 295 295 294 293 292 291 290 291 292 291 290 291 292 292 292 292 292 293 294 295 295 296
313 311 310 309 311 308 308 309 314 314 311 314 312 311 311 307 305 304 301 299 297 295 294 293 293 292 291 290 289 289 289 289 288 288 288 287 287 287 286 286 286 287 288 289
317 318 310 309 311 312 309 309 311 308 316 314 312 317 314 304 302 301 300 298 297 296 294 292 292 292 291 290 288 287 287 287 287 287 286 286 286 285 285 285 285 285 284 285
315 315 308 308 307 310 313 314 312 314 310 315 313 310 308 304 302 300 299 297 296 295 295 293 291 291 291 290 289 287 287 286 286 286 286 285 285 285 284 284 284 284 284 284
313 312 313 310 311 308 313 310 314 312 308 313 311 311 310 307 304 301 298 297 295 295 295 294 291 290 290 289 288 287 287 286 286 286 286 285 285 285 285 285 285 285 285 285
313 312 312 311 313 313 309 313 313 312 312 308 307 310 307 307 305 302 298 296 294 294 293 293 291 290 289 288 288 287 287 287 286 286 286 286 285 285 285 285 285 285 285 284
313 311 308 312 310 308 309 309 310 315 311 309 311 311 307 306 302 300 298 297 294 293 290 289 290 289 288 288 288 287 287 287 286 286 286 286 286 286 286 285 285 285 284 284
312 308 302 305 304 308 310 311 310 309 308 305 313 309 303 303 301 299 299 297 295 291 288 288 289 290 290 288 288 287 287 286 286 286 286 286 286 285 285 284 284 283 283 283
309 306 305 307 302 306 307 306 305 305 305 304 308 306 304 302 301 300 299 297 293 289 288 287 286 288 288 288 288 288 288 288 287 287 287 286 285 284 284 283 282 281 281 281
306 304 306 306 304 304 303 305 304 304 304 304 303 301 301 299 297 295 293 294 292 289 287 285 285 286 288 288 288 288 288 288 287 287 286 285 284 283 282 281 280 280 280 280
302 299 299 294 300 301 302 300 300 301 301 300 300 300 298 295 294 292 290 293 292 291 288 287 286 287 287 288 288 287 286 287 286 285 284 284 284 283 281 279 279 278 277 277
302 297 294 297 296 293 293 294 296 295 295 295 294 295 290 293 293 292 289 288 288 288 287 286 286 287 288 288 287 287 286 285 285 285 284 282 280 278 278 277 276 274 274 273
299 295 291 289 287 290 293 291 292 293 294 293 290 286 288 290 290 288 287 288 287 287 287 286 287 288 287 286 286 285 284 283 282 280 278 277 276 275 273 272 271 271 270 270
296 296 288 290 286 289 293 291 291 291 290 287 287 286 289 288 288 288 287 286 286 287 288 288 288 287 286 284 283 283 282 280 278 276 275 274 272 271 270 269 268 268 267 267
292 295 293 279 285 288 290 290 289 289 289 283 282 285 287 287 285 287 286 287 287 288 288 287 287 285 284 282 281 280 278 276 275 273 272 271 270 268 267 267 266 265 265 265
283 285 297 294 287 285 288 288 289 288 289 281 283 287 287 287 288 287 286 286 287 288 287 286 285 283 281 279 278 276 274 272 272 271 270 269 268 267 267 265 265 264 263 263
289 287 286 284 286 288 286 288 290 289 289 288 288 289 288 288 287 286 286 286 286 285 285 284 282 279 277 276 275 273 272 271 270 268 268 268 267 267 266 265 264 263 262 262
288 288 285 288 287 289 287 290 290 289 288 290 289 288 287 287 287 286 286 285 285 285 282 281 279 277 274 273 272 270 270 269 267 267 267 267 267 266 265 264 263 262 262 262
288 287 288 286 288 288 289 289 288 288 288 288 288 288 286 287 287 287 285 284 284 282 279 277 275 273 272 271 270 268 268 267 266 265 266 266 265 264 264 263 263 262 262 262
289 287 287 288 289 288 287 287 288 287 287 287 286 286 286 285 286 285 285 282 282 279 276 275 273 272 270 269 268 268 266 265 265 264 265 264 264 263 263 263 263 263 263 264
291 290 290 289 289 289 289 289 287 287 287 286 286 286 285 284 285 283 281 281 278 275 273 272 271 269 269 268 267 267 265 264 264 263 263 263 263 263 262 262 262 264 265 266
Wind_Speed
0 3 7 12 9 3 2 3 6 5 7 2 7 7 14 7 8 3 8 8 10 11 13 19 22 27 28 30 31 32 32 29 20 15 9 6 3 2 3 8 7 10 14 18
3 7 10 3 5 4 4 4 7 8 4 1 5 12 5 9 5 7 8 8 9 8 10 17 22 27 31 33 33 32 32 30 27 22 18 14 11 17 17 10 8 4 6 11
7 5 6 6 3 4 5 5 4 8 5 3 4 7 2 5 8 11 10 10 11 9 9 9 18 23 29 34 33 34 32 31 27 23 17 15 14 17 17 19 15 15 11 6
6 6 7 4 5 6 5 5 5 2 2 3 3 4 6 3 6 8 8 7 7 7 6 8 13 20 27 28 30 33 34 34 31 26 25 25 25 22 19 20 19 16 13 11
7 4 4 3 7 7 6 2 0 0 2 2 4 1 7 8 3 4 5 6 6 6 5 7 14 17 25 28 29 29 31 33 31 31 29 27 25 20 18 16 16 17 16 15
5 1 5 7 2 3 3 3 6 4 3 1 7 6 5 5 6 6 5 6 6 5 6 10 15 20 23 24 28 28 30 30 30 30 30 29 28 26 26 25 24 22 19 18
2 4 2 3 4 2 4 5 3 4 2 5 3 3 6 7 1 14 13 8 6 6 6 6 10 15 20 24 24 26 27 28 27 29 29 29 28 28 28 27 26 25 23 24
5 3 6 3 5 6 5 7 5 5 3 4 5 5 3 4 7 8 8 8 7 6 5 6 10 14 17 18 20 22 23 24 24 24 25 25 24 25 25 25 25 26 26 24
5 5 1 2 2 4 4 4 3 4 2 2 4 1 2 4 5 5 6 6 6 6 6 7 11 13 14 14 16 18 18 19 20 20 19 20 21 21 21 21 21 22 23 25
5 0 4 2 3 3 4 6 3 1 1 5 5 5 5 9 8 7 8 7 7 7 6 5 8 12 12 13 12 13 13 15 15 16 17 17 18 18 19 21 23 24 23 23
4 4 2 4 5 8 1 3 2 4 5 5 2 5 3 9 12 12 8 8 9 8 7 6 10 11 10 8 7 8 9 11 12 13 14 15 17 17 19 21 22 24 26 27
4 5 4 8 3 1 3 7 6 6 6 4 2 8 1 7 9 10 10 11 7 5 7 8 13 12 10 8 6 5 4 4 4 5 9 12 15 18 21 24 26 26 27 28
7 1 2 7 5 1 4 2 2 4 3 5 4 7 1 4 7 7 7 7 7 7 7 7 11 12 11 11 11 11 10 9 3 1 4 8 13 17 21 24 26 27 29 30
4 5 7 8 5 3 3 5 4 4 2 3 10 6 6 7 7 5 7 8 8 8 7 7 7 12 14 13 13 12 8 5 4 5 7 11 18 22 25 27 28 29 29 31
4 5 4 1 4 3 4 8 8 8 6 8 18 11 18 10 5 8 7 4 7 7 8 8 7 13 16 14 14 13 10 7 6 6 8 14 19 24 27 28 29 30 31 31
2 1 3 3 1 4 8 13 5 12 15 14 16 21 16 7 3 4 6 6 6 6 7 8 10 13 15 17 17 13 8 6 4 5 12 18 23 28 29 30 32 31 29 30
5 5 3 5 3 3 9 9 17 13 10 8 11 13 2 4 5 5 5 6 7 6 7 7 8 12 14 15 13 9 6 4 5 11 16 20 22 23 25 30 36 37 38 37
6 5 2 2 3 3 6 3 3 9 9 7 1 3 5 4 3 5 6 7 7 7 7 7 10 12 9 9 10 9 5 5 9 12 15 17 18 23 29 30 30 33 33 32
3 5 2 4 5 7 11 6 7 7 7 6 7 4 5 3 2 4 5 6 6 7 13 16 15 13 13 12 8 4 4 7 11 14 14 16 23 25 26 29 29 29 31 32
4 2 5 3 5 9 7 2 5 5 5 6 6 6 5 6 3 6 7 6 9 16 14 15 16 16 14 10 6 4 5 8 11 13 17 22 22 24 27 29 30 29 28 29
3 2 14 11 6 8 8 4 2 5 8 4 6 6 6 5 8 5 7 7 13 15 14 15 17 16 12 9 5 3 4 8 10 15 19 21 23 25 26 28 27 29 30 28
7 8 4 2 2 7 8 5 7 6 3 5 6 6 7 11 8 8 9 7 12 13 17 19 18 15 10 7 4 3 6 8 14 15 18 20 22 23 25 26 30 29 26 25
2 7 6 11 7 4 7 6 13 5 6 6 6 8 10 10 11 10 10 9 13 18 18 19 17 13 9 5 5 6 8 12 13 15 17 20 22 22 22 25 29 26 22 22
5 5 4 5 6 9 9 13 5 7 9 8 9 10 8 11 10 11 9 7 9 17 18 17 13 11 8 6 4 9 10 11 13 15 18 20 21 23 23 24 26 23 22 22
7 6 4 6 12 7 7 8 11 9 10 11 8 9 12 9 11 11 8 6 12 16 16 14 11 8 7 5 7 9 10 10 12 15 18 19 20 22 24 22 24 23 24 25
13 12 5 9 17 12 11 9 8 10 13 11 11 9 9 11 12 7 6 9 15 15 13 10 8 7 6 7 9 9 9 10 11 15 17 19 20 20 21 21 25 26 24 27
Wind_Direction
207 111 207 208 200 164 172 216 244 264 259 246 272 279 293 309 262 52 95 85 75 62 43 35 37 47 53 51 51 53 55 55 69 70 57 61 43 300 272 265 275 261 256 251
61 224 229 177 174 203 227 239 259 272 266 210 314 294 29 19 26 66 96 87 79 68 46 36 35 41 48 52 53 52 53 55 58 63 62 66 70 57 51 46 39 359 270 257
167 216 151 171 199 207 227 201 241 239 339 281 344 296 133 63 71 68 58 67 61 58 51 31 36 40 50 54 56 57 58 56 56 58 70 78 72 52 42 36 35 33 31 360
231 237 195 185 228 182 273 204 221 212 95 239 42 283 314 150 83 70 74 70 74 70 60 53 44 45 51 55 60 61 61 61 59 59 61 63 63 57 45 39 39 41 35 30
242 188 148 169 218 157 227 128 100 140 183 41 306 117 266 117 130 114 94 98 97 87 78 62 54 56 58 56 58 59 59 59 58 59 63 66 65 61 54 44 36 32 30 28
249 348 165 200 101 168 115 38 32 54 119 284 223 170 274 191 187 147 154 130 116 99 79 77 74 68 64 60 59 59 58 56 56 56 56 55 54 51 49 46 47 41 32 20
215 212 224 147 115 41 94 69 308 337 356 231 128 130 249 322 167 155 151 144 134 124 111 91 74 67 66 63 61 60 60 57 55 56 54 51 50 49 46 39 35 37 37 30
174 292 173 178 188 184 169 160 161 222 225 279 322 244 290 9 65 107 127 140 141 133 115 102 95 85 75 69 68 66 61 62 58 56 56 51 48 47 42 36 32 26 23 24
167 266 130 181 150 136 179 173 162 112 9 269 238 336 186 86 81 116 142 143 151 154 151 139 124 111 101 87 72 66 65 63 56 54 51 49 44 36 34 29 25 23 17 10
203 97 223 173 110 45 150 161 80 29 179 251 285 260 216 194 185 184 175 178 176 178 171 153 129 114 96 83 76 69 63 58 53 50 45 37 33 26 20 17 9 8 5 359
142 127 225 122 198 181 151 198 113 149 163 182 240 257 254 177 187 187 193 197 197 194 171 148 131 112 103 99 89 75 62 53 45 36 33 28 23 13 6 3 357 355 352 348
195 147 168 206 274 324 194 199 172 203 218 234 186 257 10 178 162 170 198 208 207 173 157 144 147 143 145 146 138 119 101 78 69 51 32 21 9 359 353 351 348 346 341 337
179 225 45 342 344 16 185 205 131 87 60 212 215 249 350 126 141 200 209 217 201 168 162 163 163 171 176 177 184 194 198 201 187 102 8 359 355 349 347 342 338 336 334 331
107 160 176 211 177 140 189 167 137 131 159 205 233 281 210 212 205 224 235 229 196 178 173 179 182 191 194 198 203 207 215 234 267 296 319 335 342 343 339 335 333 330 327 323
135 197 164 144 133 141 220 238 160 198 217 221 266 245 264 269 211 228 235 218 166 181 186 194 200 208 212 218 225 230 237 245 262 289 318 333 335 334 332 329 327 325 322 319
9 243 80 307 232 211 259 263 237 235 254 257 255 266 273 288 156 165 200 190 180 191 201 214 220 225 230 238 244 247 245 249 263 304 326 326 322 320 321 321 321 320 317 313
156 137 105 256 64 63 290 222 229 240 225 224 233 244 245 255 229 218 206 172 173 191 199 205 208 218 236 251 251 226 202 221 293 312 313 315 316 317 316 313 311 312 312 312
136 112 94 211 41 284 268 285 247 227 248 207 225 225 208 232 239 178 190 188 210 212 213 216 225 230 218 191 167 172 200 277 305 316 321 320 316 313 312 313 313 311 310 306
161 140 144 164 208 312 290 237 188 175 268 192 187 234 229 205 84 285 222 184 189 202 222 233 232 219 184 171 171 198 279 304 316 326 323 313 314 315 315 312 311 307 306 304
148 57 159 108 172 215 241 263 122 110 283 221 170 211 188 130 162 237 206 204 227 240 241 220 199 177 174 175 201 255 286 307 321 315 313 314 318 315 314 314 312 308 301 297
79 63 215 225 236 279 246 208 128 121 251 207 184 223 171 188 211 208 189 231 243 250 224 198 183 185 186 192 217 245 301 321 305 305 312 316 317 317 317 314 313 310 304 296
158 160 192 139 215 275 185 86 173 207 183 183 200 212 201 218 234 223 235 236 241 207 183 189 183 180 186 206 238 283 312 301 303 309 311 315 318 319 318 315 317 312 301 297
234 192 183 190 203 228 194 201 217 169 185 210 199 218 206 215 231 233 238 240 231 211 184 188 183 177 189 222 282 312 302 305 306 306 313 318 320 321 319 315 314 300 303 301
257 172 213 84 221 225 202 230 241 196 215 221 216 218 205 223 238 242 239 236 209 186 175 176 172 179 192 217 294 304 303 302 303 308 317 324 322 321 319 316 305 296 302 298
208 152 190 266 268 257 246 228 240 245 227 235 237 224 234 223 244 233 242 225 195 171 173 177 180 188 202 253 286 296 296 297 304 310 321 324 323 319 311 304 300 299 298 294
222 233 224 241 251 239 253 253 229 228 239 226 228 246 236 212 232 208 220 193 169 166 172 174 188 202 232 275 288 295 292 292 302 311 320 322 320 313 304 300 301 317 307 304